Home   Weather   Dundalk   Past weeks

Flag for Ireland Past Weather in Dundalk, Ireland — Yesterday and Last 2 Weeks

Now
35 °F

Chilly.


Feels Like: 32 °F
Forecast: N/A
Wind: 3 mph from Southwest

Location: Glenanne

Current Time: Jan 22, 2017 at 6:42:35 pm

Latest Report: Jan 22, 2017 at 5:00 pm


Visibility: 6 mi

Pressure: 30.25 "Hg

Humidity: 81%

Dew Point: 30 °F

Location of DundalkLocation

Past Weather in Dundalk — Graph

°F

Dundalk Temperature Yesterday

Maximum temperature yesterday: 40 °F (at 12:00 pm)
Minimum temperature yesterday: 29 °F (at 10:00 pm)
Average temperature yesterday: 34 °F

High & Low Weather Summary for the Past Weeks

 TemperatureHumidityPressure
High51 °F (Jan 11, 12:00 am)100% (Jan 7, 9:00 pm)30.63 "Hg (Jan 7, 9:00 pm)
Low29 °F (Jan 21, 10:00 pm)59% (Jan 11, 11:00 am)29.47 "Hg (Jan 12, 4:00 pm)
Average42 °F91%30.20 "Hg
* Reported Jan 7 5:00 pm — Jan 22 5:00 pm, Dundalk, Weather by CustomWeather, © 2017

Note: Actual official high and low records may vary slightly from our data, if they occured in-between our weather recording intervals... More about our weather records

Advertising

Dundalk Weather History for the Previous 24 Hours

Scroll right to see more
 ConditionsComfort  
Time TempWeatherWind HumidityBarometerVisibility
5:00 pm
Sun, Jan 22
35 °FChilly.3 mph81%30.25 "Hg6 mi
4:00 pm36 °FChilly.3 mph81%30.23 "Hg7 mi
3:00 pm38 °FChilly.6 mph73%30.22 "Hg7 mi
2:00 pm40 °FQuite cool.6 mph70%30.21 "Hg7 mi
1:00 pm41 °FQuite cool.5 mph69%30.21 "Hg10 mi
12:00 pm38 °FChilly.3 mph77%30.22 "Hg7 mi
11:00 am35 °FChilly.1 mph84%30.21 "Hg7 mi
10:00 am34 °FSmoke.2 mph89%30.22 "Hg5 mi
9:00 am34 °FChilly.3 mph85%30.20 "Hg7 mi
8:00 am34 °FChilly.3 mph86%30.19 "Hg7 mi
7:00 am33 °FSmoke.2 mph92%30.18 "Hg3 mi
6:00 am33 °FSmoke.1 mph92%30.18 "Hg4 mi
5:00 am33 °FSmoke.2 mph91%30.17 "Hg6 mi
4:00 am32 °FSmoke.1 mph93%30.18 "Hg4 mi
3:00 am33 °FSmoke.2 mph93%30.18 "Hg4 mi
2:00 am33 °FSmoke.2 mph92%30.19 "Hg4 mi
1:00 am33 °FSmoke.1 mph91%30.20 "Hg5 mi
12:00 am32 °FSmoke.1 mph91%30.21 "Hg6 mi
11:00 pm
Sat, Jan 21
32 °FChilly.3 mph91%30.22 "Hg6 mi
10:00 pm29 °FSmoke.3 mph92%30.23 "Hg6 mi
9:00 pm30 °FSmoke.2 mph89%30.24 "Hg6 mi
8:00 pm30 °FSmoke.2 mph92%30.25 "Hg6 mi
7:00 pm31 °FSmoke.3 mph92%30.25 "Hg6 mi
6:00 pm32 °FChilly.7 mph87%30.25 "Hg6 mi
Weather by CustomWeather, © 2017

See weather overviewHow to use our weather pages